Regional Weather Roundup
Issued by NWS

Home | Current Version | Previous Version | Graphics & Text | Print | Product List | Glossary On
Versions: 1 2 3 4 5 6 7 8 9 10 11 12 13 14 15 16 17 18 19 20 21 22 23 24 25 26 27 28 29 30 31 32 33 34 35 36 37 38 39 40 41 42 43 44 45 46 47 48 49 50
000
ASUS45 KABQ 180501
RWRNM
WEATHER ROUNDUP FOR NEW MEXICO
NATIONAL WEATHER SERVICE ALBUQUERQUE NM
1100 PM MDT THU APR 17 2014

NOTE: "FAIR" MEANS FEW OR NO CLOUDS BELOW 12,000 FEET AGL WITH NO
       SIGNIFICANT WEATHER OR OBSTRUCTIONS TO VISION.

      THIS PRODUCT IS RELEASED AS TWO VERSIONS.  ONE VERSION NEAR
      THE TOP OF THE HOUR CONTAINING PRELIMINARY DATA FROM ALBUQUERQUE
      AND OTHER STATIONS.  A FINAL VERSION WITH ADDITIONAL DATA IS
      ISSUED ABOUT 10 MINUTES AFTER THE HOUR.

NMZ501-503-504-510>518-180600-
NORTHWEST PLATEAU/NORTHCENTRAL MOUNTAINS

CITY           SKY/WX    TMP DP  RH WIND       PRES   REMARKS
FARMINGTON     CLEAR     47  20  34 NE7       30.09R
LOS ALAMOS     CLEAR     47  26  44 S13       30.25R
SANTA FE       CLEAR     49  27  42 SE14      30.20R
TAOS           CLEAR     39  19  45 N5        30.23R
ANGEL FIRE     FAIR      36  31  82 SE6       30.25S WCI  31

$$
NMZ402-403-502-505>509-180600-
WESTCENTRAL MOUNTAINS/SOUTHWEST MOUNTAINS

CITY           SKY/WX    TMP DP  RH WIND       PRES   REMARKS
GALLUP         CLEAR     46  16  30 E5        30.15S
SILVER CITY    CLEAR     59  14  17 E8        30.15R

$$
NMZ407-409-411-412-180600-
SOUTHERN DESERTS

CITY           SKY/WX    TMP DP  RH WIND       PRES   REMARKS
DEMING         PTCLDY    59  13  16 E3        30.06R
LAS CRUCES     CLEAR     64  26  23 SE12      30.12R
HOLLOMAN AFB   CLEAR     60  26  27 VRB2      30.10R
T OR C         CLEAR     61  20  20 SE7       30.10R

$$
NMZ519>523-180600-
CENTRAL VALLEYS/CENTRAL HIGHLANDS

CITY           SKY/WX    TMP DP  RH WIND       PRES   REMARKS
ALBUQUERQUE    CLEAR     58  25  28 E21       30.14R
DOUBLE EAGLE   CLEAR     51  25  35 SE9       30.16S
CLINES CORNERS CLEAR     42  26  53 SE8       30.24R
BELEN          FAIR      58  26  29 SE16      30.14S
SOCORRO        NOT AVBL

$$
NMZ524>526-539-540-180600-
SOUTHCENTRAL MOUNTAINS

CITY           SKY/WX    TMP DP  RH WIND       PRES   REMARKS
RUIDOSO        NOT AVBL

$$
NMZ527>531-180600-
NORTHEAST HIGHLANDS/NORTHEAST PLAINS

CITY           SKY/WX    TMP DP  RH WIND       PRES   REMARKS
LAS VEGAS      CLEAR     38  26  62 SW10      30.24R WCI  31
RATON          CLEAR     39  32  76 SW7       30.20S WCI  34
CLAYTON        CLEAR     38  31  76 S15       30.20S WCI  29

$$
NMZ532>537-180600-
EASTCENTRAL PLAINS

CITY           SKY/WX    TMP DP  RH WIND       PRES   REMARKS
TUCUMCARI      CLEAR     45  33  63 E6        30.20R
CANNON AFB     CLEAR     42  36  79 E9        30.22S
CLOVIS AIRPORT CLEAR     39  32  75 SE7       30.25S WCI  34

$$
NMZ028-029-538-180600-
SOUTHEAST PLAINS

CITY           SKY/WX    TMP DP  RH WIND       PRES   REMARKS
ROSWELL        CLEAR     55  33  43 E8        30.17R
CARLSBAD       CLEAR     60  39  45 E10       30.16R
HOBBS          CLEAR     50  41  71 E13G18    30.22S


$$



USA.gov is the U.S. government's official web portal to all federal, state and local government web resources and services.